Regional Weather Roundup
Issued by NWS

Home | Current Version | Previous Version | Text Only | Print | Product List | Glossary Off
Versions: 1 2 3 4 5 6 7 8 9 10 11 12 13 14 15 16 17 18 19 20 21 22 23 24 25 26 27 28 29 30 31 32 33 34 35 36 37 38 39 40 41 42 43 44 45 46 47 48 49 50

000
ASUS43 KIND 251409
RWRIN

WEATHER ROUNDUP FOR INDIANA
NATIONAL WEATHER SERVICE INDIANAPOLIS IN
1000 AM EDT SUN SEP 25 2016

NOTE: "FAIR" INDICATES FEW OR NO CLOUDS BELOW 12,000 FEET WITH NO
SIGNIFICANT WEATHER AND/OR OBSTRUCTIONS TO VISIBILITY.

* - STATION DOES NOT REPORT WEATHER SUCH AS PRECIPITATION OR FOG.

+ - STATION NOT QUALITY CONTROLLED BY THE NATIONAL WEATHER SERVICE.
    USE DATA WITH CAUTION...ESPECIALLY DEWPOINT AND RELATIVE
    HUMIDITY OBSERVATIONS.

INZ001>003-010>013-019-020-251500-
NORTHWEST INDIANA

CITY           SKY/WX    TMP DP  RH WIND       PRES   REMARKS
GARY /AIRPORT/ MOSUNNY   66  55  68 S14       30.11S
KNOX *+        MOSUNNY   64  32  29 SE7       30.13S
LA PORTE +     PTSUNNY   65  54  66 SE7       30.14F
MICHIGAN CITY+ CLOUDY    63  52  67 MISG      30.13S
MONTICELLO +   MOSUNNY   65  53  65 SE6       30.12F
RENSSELAER +   PTSUNNY   66  59  77 SE5       30.12S
VALPARAISO     MOSUNNY   64  53  67 SE8       30.13F

$$

LMZ046-743>745-251500-
SOUTHERN LAKE MICHIGAN

STATION/POSITION TIME  TEMP    WIND        PRES    WAVE
                       AIR SEA DIR/SP/G            HT
                 (UTC) (F)     (DEG/KT/KT) (MB)    (FT)
BURNS HARBOR     1300   64     140/ 16/ 22 1019.6F
MICHIGAN CITY    1300   63     120/ 16/ 19   N/A
5NW MICH CITY    1400   64 68  160/ 12/ 16   N/A     1

$$

INZ004-005-014>016-021>024-251500-
NORTH CENTRAL INDIANA

CITY           SKY/WX    TMP DP  RH WIND       PRES   REMARKS
ELKHART        SUNNY    N/A N/A N/A E7        30.16S
GOSHEN         CLOUDY    64  44  48 SE6       30.16S
LOGANSPORT +   SUNNY     64  55  72 E7        30.14F
PERU/GRISSOM   SUNNY     65  56  73 SE6       30.13S
ROCHESTER +    SUNNY     68  55  64 SE7       30.14F
SOUTH BEND     CLOUDY    62  52  69 SE12      30.15F
WARSAW +       MOSUNNY   63  48  59 SE7       30.16S

$$

INZ006>009-017-018-025>027-251500-
NORTHEAST INDIANA

CITY           SKY/WX    TMP DP  RH WIND       PRES   REMARKS
ANGOLA *+        N/A     63  54  72 SE7       30.17S
AUBURN +       SUNNY     63  52  67 E5        30.18S
FORT WAYNE     MOSUNNY   63  53  70 NE3       30.17S
HUNTINGTON +   SUNNY     63  54  74 CALM      30.16S
KENDALLVILLE + SUNNY     64  44  49 SE9       30.18S

$$

INZ028-029-035-036-043>045-051>053-251500-
WEST CENTRAL INDIANA

CITY           SKY/WX    TMP DP  RH WIND       PRES   REMARKS
CRAWFORDSVL +  SUNNY     68  65  89 SE6       30.12F
GREENCASTLE +  SUNNY     68  66  94 SE6       30.13S
LAFAYETTE      SUNNY     66  61  84 SE5       30.11F
TERRE HAUTE    PTSUNNY   73  67  81 SE8       30.11S

$$

INZ030>032-037>040-046>048-054>057-064-065-251500-
CENTRAL INDIANA

CITY           SKY/WX    TMP DP  RH WIND       PRES   REMARKS
COLUMBUS       SUNNY     66  64  94 CALM      30.14S
GREENWOOD *+   SUNNY     68  64  88 SE5       30.15S
INDIANAPOLIS   SUNNY     68  61  78 SE6       30.13S
-EAGLE CREEK   SUNNY     69  60  73 SE6       30.13F
MARION +       SUNNY     65  55  71 S3        30.16R
MT COMFORT *+  SUNNY     68  59  73 S6        30.14S
SHELBYVILLE    SUNNY     71  60  68 SE6       30.14S
ZIONSVILLE +   SUNNY     67  60  79 S6        30.14F

$$

INZ033-034-041-042-049-050-058-059-251500-
EAST CENTRAL INDIANA

CITY           SKY/WX    TMP DP  RH WIND       PRES   REMARKS
MUNCIE         SUNNY     68  57  68 S6        30.15S

$$

INZ060-061-067>069-081>083-085>088-251500-
SOUTHWEST INDIANA

CITY           SKY/WX    TMP DP  RH WIND       PRES   REMARKS
EVANSVILLE     SUNNY     75  68  78 SE3       30.10S HAZE
HUNTINGBURG *+   N/A     73  68  83 SE3       30.11S
WASHINGTON +   SUNNY     72  71  96 MISG      30.11S

$$

INZ062-063-066-070>080-084-089>092-251500-
SOUTH CENTRAL AND SOUTHEAST INDIANA

CITY           SKY/WX    TMP DP  RH WIND       PRES   REMARKS
BLOOMINGTON    SUNNY     71  65  81 SE7       30.13S
MADISON *+     SUNNY     72  63  73 E5        30.15R
NORTH VERNON + SUNNY    N/A N/A N/A E3        30.14S
SEYMOUR +      SUNNY     72  64  78 CALM      30.13R

$$





USA.gov is the U.S. government's official web portal to all federal, state and local government web resources and services.